EW4694 Weather Reports


Display with metric or nautical units.
time (UTC)temp
F
wind
direction
speed
MPH
gust
MPH
rain 1hr
in
rain 24hr
in
rain mn
in
humidity
%
barometer
mb
20260503031532 40 9 0.0 0.0 0.00 0.00 0.00 67 1018.4
20260503030028 41 9 0.0 0.0 0.00 0.00 0.00 68 1018.4
20260503024523 41 5 0.0 0.0 0.00 0.00 0.00 68 1018.3
20260503023018 42 5 0.0 0.0 0.00 0.00 0.00 69 1018.4
20260503021559 43 5 0.0 0.0 0.00 0.00 0.00 68 1018.2
20260503020054 44 5 0.0 0.0 0.00 0.00 0.00 66 1018.1
20260503014531 44 360 0.0 0.0 0.00 0.00 0.00 66 1018.0
20260503013036 44 360 0.0 0.0 0.00 0.00 0.00 64 1017.9
20260503011506 45 310 0.0 0.0 0.00 0.00 0.00 63 1017.7
20260503010001 45 300 0.0 0.0 0.00 0.00 0.00 62 1017.5
20260503004541 46 355 0.0 0.0 0.00 0.00 0.00 62 1017.2
20260503003036 47 360 0.0 0.0 0.00 0.00 0.00 60 1017.0
20260503001516 47 338 0.0 0.0 0.00 0.00 0.00 59 1016.9
20260503000014 48 338 0.0 0.0 0.00 0.00 0.00 58 1016.7
20260502234548 48 326 0.0 0.0 0.00 0.00 0.00 55 1016.5
20260502233044 49 315 0.0 0.0 0.00 0.00 0.00 54 1016.3
20260502231523 50 335 0.0 0.0 0.00 0.00 0.00 51 1016.2
20260502230023 51 290 0.0 1.0 0.00 0.00 0.00 49 1015.9
20260502224620 51 327 0.0 0.0 0.00 0.00 0.00 48 1015.7
20260502223052 51 278 0.0 2.0 0.00 0.00 0.00 47 1015.7
20260502221550 51 300 0.0 0.0 0.00 0.00 0.00 47 1015.7
20260502220027 51 302 0.0 0.0 0.00 0.00 0.00 45 1015.3
20260502214534 51 305 0.0 0.0 0.00 0.00 0.00 45 1015.2
20260502213101 52 288 0.0 0.0 0.00 0.00 0.00 45 1015.2
20260502211605 52 269 0.0 1.0 0.00 0.00 0.00 45 1015.1
20260502210046 52 298 0.0 0.0 0.00 0.00 0.00 46 1015.1
20260502204532 52 311 0.0 0.0 0.00 0.00 0.00 44 1015.1
20260502203009 53 278 0.0 0.0 0.00 0.00 0.00 44 1015.2
20260502201511 53 292 0.0 0.0 0.00 0.00 0.00 49 1015.2
20260502200043 52 296 0.0 2.0 0.00 0.00 0.00 45 1015.3
20260502194540 52 284 0.0 1.0 0.00 0.00 0.00 45 1015.4
20260502193017 52 296 0.0 0.0 0.00 0.00 0.00 45 1015.6
20260502191514 53 279 0.0 0.0 0.00 0.00 0.00 46 1015.6
20260502190053 53 275 0.0 5.0 0.00 0.00 0.00 48 1015.7
20260502184549 52 290 0.0 9.0 0.00 0.00 0.00 48 1015.9
20260502183025 54 297 0.0 1.0 0.00 0.00 0.00 42 1015.8
20260502181521 52 281 0.0 3.0 0.00 0.00 0.00 43 1015.8
20260502180105 52 329 0.0 10.0 0.00 0.00 0.00 45 1016.1
20260502163045 51 311 0.0 0.0 0.00 0.00 0.00 54 1016.5
20260502161537 50 303 0.0 0.0 0.00 0.00 0.00 51 1016.8
20260502151548 49 304 0.0 0.0 0.00 0.00 0.00 61 1017.1
20260502123017 39 296 0.0 0.0 0.00 0.00 0.00 1 1017.5
20260502121512 37 296 0.0 0.0 0.00 0.00 0.00 1 1017.6
20260502114503 34 296 0.0 0.0 0.00 0.00 0.00 1 1017.7
20260502113059 32 300 0.0 0.0 0.00 0.00 0.00 1 1017.7
20260502111555 32 300 0.0 0.0 0.00 0.00 0.00 1 1017.5
20260502110053 0 0.0 0.0 0.00 0.00 0.00 1017.8
20260502104548 0 0.0 0.0 0.00 0.00 0.00 1017.7
20260502103044 0 0.0 0.0 0.00 0.00 0.00 1017.7
20260502101558 0 0.0 0.0 0.00 0.00 0.00 1017.6
20260502091528 0 0.0 0.0 0.00 0.00 0.00 1017.7
20260502071524 35 304 0.0 0.0 0.00 0.01 0.00 16 1017.0
20260502070021 35 304 0.0 0.0 0.00 0.01 0.00 16 1017.3
20260502064535 36 304 0.0 0.0 0.00 0.01 0.00 21 1017.4
20260502063123 36 304 0.0 0.0 0.00 0.01 0.00 24 1017.4
20260502061554 37 304 0.0 0.0 0.00 0.01 0.00 28 1017.5
20260502060042 37 304 0.0 0.0 0.00 0.01 0.00 37 1017.5
20260502054529 39 304 0.0 0.0 0.00 0.01 0.00 43 1017.6
20260502053009 39 304 0.0 0.0 0.00 0.01 0.00 44 1017.7
20260502051508 40 304 0.0 0.0 0.00 0.01 0.00 51 1017.8
20260502050047 41 304 0.0 0.0 0.00 0.01 0.00 59 1017.8
20260502044541 42 304 0.0 0.0 0.00 0.01 0.00 62 1017.8
20260502043020 43 304 0.0 0.0 0.00 0.01 0.00 62 1017.5
20260502041523 44 304 0.0 0.0 0.00 0.01 0.00 66 1017.4
20260502040059 45 304 0.0 0.0 0.00 0.01 0.00 67 1017.4
20260502034555 45 304 0.0 0.0 0.00 0.01 0.01 68 1017.4
20260502033033 46 292 0.0 0.0 0.00 0.01 0.01 69 1017.4